COSMOS 886 DEB

Satellite information

Favourite Embed

Satellite Type and Status

DEBRISIN ORBIT

Key statistics

Satellite COSMOS 886 DEB at a glance.

Uptime

17883

Days in orbit

Revolutions

≈ 13.0

Per day

Orbit

LEO

Low Earth Orbit

Inclination

65.8

Latest

Satellite identification and parameters

Extended collection of information and parameters for COSMOS 886 DEB.

Object identification

Identified? True

Debris? True

Object name: COSMOS 886 DEB

International designator: 1976-126J

Object number (NORAD): 9652

Object ID (CCSDS): 9652

Country: COMMONWEALTH OF INDEPENDENT STATES (CIS)

Current information (Y/N): Y

RCS size: MEDIUM

Orbital parameters

Period: 111.09 minutes

Inclination: 65.828 deg

SMA: 7654.952 km

Apoapsis: 1953.218 km

Periapsis: 600.415 km

RAAN: 161.3168 deg

Eccentricy: 0.08836129

Argument of periapsis: 56.1565 deg

Mean anomaly: 312.04 deg

Mean motion: 12.96250932 rev/day

Mean motion (dot): 0.00001153 rev/day2

B* drag term: 0.0006654141 1/REarth

Two-line elements (TLE)

Creation date: Dec. 12, 2025, 10:14 a.m.

Reference frame: TEME

Reference center: EARTH

Epoch: Dec. 12, 2025, 5:57 a.m. UTC

TLE line 0: 0 COSMOS 886 DEB

TLE line 1: 1 09652U 76126J 25346.24813196 .00001153 00000-0 66541-3 0 9993

TLE line 2: 2 09652 65.8280 161.3168 0883613 56.1565 312.0400 12.96250932284638

Live tracking on map

Real-time ground track for satellite COSMOS 886 DEB.

In-orbit conjunctions

A list of the most updated potential collisions computed for object COSMOS 886 DEB.

Target Orbit TCA Probability of collision Miss distance Type
FENGYUN 1C DEB SSO 2025-02-07 09:27:52 0.000106331 125.0 (m) DEBRIS
PSLV R/B SSO 2024-10-28 18:14:21 0.00010684 951.0 (m) ROCKET BODY

Associated space launch

Second generation ASAT satellite

COSMOS 886 DEB was lifted into orbit during the mission ‘Tsiklon-2 | IS-A 4’, on board a Tsiklon-2 space rocket.

The launch took place on Dec. 27, 1976, 12:05 p.m. from 90.

For more information about the launch, click the button.

Launch to space Tsiklon-2 | IS-A 4
Tsiklon-2 | IS-A 4

Agency: N/A

Status: Launch Successful

Launch date: Dec. 27, 1976, 12:05 p.m. UTC

Rocket: Tsiklon-2

Launch pad: 90

Location: Baikonur Cosmodrome, Republic of Kazakhstan

...

Latest news about this satellite

There are no fresh news available about this satellite. Check back as we update our databases every day.


Newsletter sign-up

Weekly statistics, charts and insights to help you stay on top of the space industry.